Year,Month,Day,Hour,Minute,Value (Times are PST for temperature in C)
2005,07,07,00,00,14.20
2005,07,07,00,01,14.20
2005,07,07,00,02,14.20
2005,07,07,00,03,14.20
2005,07,07,00,04,14.20
2005,07,07,00,05,14.20
2005,07,07,00,06,14.20
2005,07,07,00,07,14.20
2005,07,07,00,08,14.20
2005,07,07,00,09,14.10
2005,07,07,00,10,14.10
2005,07,07,00,11,14.10
2005,07,07,00,12,14.10
2005,07,07,00,13,14.10
2005,07,07,00,14,14.00
2005,07,07,00,15,14.00
2005,07,07,00,16,14.00
2005,07,07,00,17,13.90
2005,07,07,00,18,13.90
2005,07,07,00,19,13.90
2005,07,07,00,20,13.80
2005,07,07,00,21,13.80
2005,07,07,00,22,13.80
2005,07,07,00,23,13.70
2005,07,07,00,24,13.70
2005,07,07,00,25,13.70
2005,07,07,00,26,13.70
2005,07,07,00,27,13.70
2005,07,07,00,28,13.60
2005,07,07,00,29,13.60
2005,07,07,00,30,13.60
2005,07,07,00,31,13.50
2005,07,07,00,32,13.50
2005,07,07,00,33,13.40
2005,07,07,00,34,13.40
2005,07,07,00,35,13.30
2005,07,07,00,36,13.30
2005,07,07,00,37,13.30
2005,07,07,00,38,13.30
2005,07,07,00,39,13.20
2005,07,07,00,40,13.20
2005,07,07,00,41,13.10
2005,07,07,00,42,13.10
2005,07,07,00,43,13.10
2005,07,07,00,44,13.00
2005,07,07,00,45,13.00
2005,07,07,00,46,13.00
2005,07,07,00,47,12.90
2005,07,07,00,48,12.90
2005,07,07,00,49,12.90
2005,07,07,00,50,12.90
2005,07,07,00,51,12.90
2005,07,07,00,52,12.90
2005,07,07,00,53,12.90
2005,07,07,00,54,12.90
2005,07,07,00,55,12.90
2005,07,07,00,56,13.00
2005,07,07,00,57,13.00
2005,07,07,00,58,13.00
2005,07,07,00,59,13.10
2005,07,07,01,00,13.10
2005,07,07,01,01,13.20
2005,07,07,01,02,13.20
2005,07,07,01,03,13.20
2005,07,07,01,04,13.20
2005,07,07,01,05,13.20
2005,07,07,01,06,13.20
2005,07,07,01,07,13.20
2005,07,07,01,08,13.20
2005,07,07,01,09,13.20
2005,07,07,01,10,13.20
2005,07,07,01,11,13.20
2005,07,07,01,12,13.20
2005,07,07,01,13,13.20
2005,07,07,01,14,13.10
2005,07,07,01,15,13.10
2005,07,07,01,16,13.10
2005,07,07,01,17,13.10
2005,07,07,01,18,13.10
2005,07,07,01,19,13.10
2005,07,07,01,20,13.10
2005,07,07,01,21,13.00
2005,07,07,01,22,13.00
2005,07,07,01,23,13.00
2005,07,07,01,24,13.00
2005,07,07,01,25,12.90
2005,07,07,01,26,12.90
2005,07,07,01,27,12.90
2005,07,07,01,28,12.90
2005,07,07,01,29,12.90
2005,07,07,01,30,12.90
2005,07,07,01,31,12.90
2005,07,07,01,32,12.90
2005,07,07,01,33,12.90
2005,07,07,01,34,12.90
2005,07,07,01,35,12.80
2005,07,07,01,36,12.80
2005,07,07,01,37,12.80
2005,07,07,01,38,12.80
2005,07,07,01,39,12.80
2005,07,07,01,40,12.80
2005,07,07,01,41,12.80
2005,07,07,01,42,12.80
2005,07,07,01,43,12.80
2005,07,07,01,44,12.80
2005,07,07,01,45,12.80
2005,07,07,01,46,12.70
2005,07,07,01,47,12.70
2005,07,07,01,48,12.70
2005,07,07,01,49,12.70
2005,07,07,01,50,12.70
2005,07,07,01,51,12.70
2005,07,07,01,52,12.70
2005,07,07,01,53,12.70
2005,07,07,01,54,12.80
2005,07,07,01,55,12.80
2005,07,07,01,56,12.80
2005,07,07,01,57,12.80
2005,07,07,01,58,12.80
2005,07,07,01,59,12.90
2005,07,07,02,00,13.00
2005,07,07,02,01,13.00
2005,07,07,02,02,13.00
2005,07,07,02,03,13.10
2005,07,07,02,04,13.20
2005,07,07,02,05,13.20
2005,07,07,02,06,13.30
2005,07,07,02,07,13.30
2005,07,07,02,08,13.50
2005,07,07,02,09,13.50
2005,07,07,02,10,13.60
2005,07,07,02,11,13.60
2005,07,07,02,12,13.60
2005,07,07,02,13,13.60
2005,07,07,02,14,13.50
2005,07,07,02,15,13.50
2005,07,07,02,16,13.50
2005,07,07,02,17,13.50
2005,07,07,02,18,13.50
2005,07,07,02,19,13.50
2005,07,07,02,20,13.50
2005,07,07,02,21,13.40
2005,07,07,02,22,13.40
2005,07,07,02,23,13.30
2005,07,07,02,24,13.30
2005,07,07,02,25,13.20
2005,07,07,02,26,13.10
2005,07,07,02,27,13.10
2005,07,07,02,28,13.00
2005,07,07,02,29,12.90
2005,07,07,02,30,12.80
2005,07,07,02,31,12.80
2005,07,07,02,32,12.80
2005,07,07,02,33,12.80
2005,07,07,02,34,12.70
2005,07,07,02,35,12.70
2005,07,07,02,36,12.60
2005,07,07,02,37,12.60
2005,07,07,02,38,12.50
2005,07,07,02,39,12.50
2005,07,07,02,40,12.50
2005,07,07,02,41,12.40
2005,07,07,02,42,12.40
2005,07,07,02,43,12.30
2005,07,07,02,44,12.30
2005,07,07,02,45,12.20
2005,07,07,02,46,12.20
2005,07,07,02,47,12.10
2005,07,07,02,48,12.10
2005,07,07,02,49,12.10
2005,07,07,02,50,12.00
2005,07,07,02,51,12.00
2005,07,07,02,52,12.00
2005,07,07,02,53,11.90
2005,07,07,02,54,11.90
2005,07,07,02,55,11.90
2005,07,07,02,56,11.80
2005,07,07,02,57,11.80
2005,07,07,02,58,11.80
2005,07,07,02,59,11.80
2005,07,07,03,00,11.80
2005,07,07,03,01,11.80
2005,07,07,03,02,11.70
2005,07,07,03,03,11.70
2005,07,07,03,04,11.70
2005,07,07,03,05,11.60
2005,07,07,03,06,11.60
2005,07,07,03,07,11.60
2005,07,07,03,08,11.60
2005,07,07,03,09,11.60
2005,07,07,03,10,11.50
2005,07,07,03,11,11.40
2005,07,07,03,12,11.40
2005,07,07,03,13,11.40
2005,07,07,03,14,11.40
2005,07,07,03,15,11.40
2005,07,07,03,16,11.40
2005,07,07,03,17,11.40
2005,07,07,03,18,11.40
2005,07,07,03,19,11.40
2005,07,07,03,20,11.40
2005,07,07,03,21,11.60
2005,07,07,03,22,11.60
2005,07,07,03,23,11.60
2005,07,07,03,24,11.60
2005,07,07,03,25,11.60
2005,07,07,03,26,11.60
2005,07,07,03,27,11.60
2005,07,07,03,28,11.60
2005,07,07,03,29,11.60
2005,07,07,03,30,11.60
2005,07,07,03,31,11.60
2005,07,07,03,32,11.70
2005,07,07,03,33,11.70
2005,07,07,03,34,11.70
2005,07,07,03,35,11.60
2005,07,07,03,36,11.60
2005,07,07,03,37,11.60
2005,07,07,03,38,11.60
2005,07,07,03,39,11.70
2005,07,07,03,40,11.70
2005,07,07,03,41,11.70
2005,07,07,03,42,11.70
2005,07,07,03,43,11.70
2005,07,07,03,44,11.70
2005,07,07,03,45,11.70
2005,07,07,03,46,11.70
2005,07,07,03,47,11.70
2005,07,07,03,48,11.60
2005,07,07,03,49,11.60
2005,07,07,03,50,11.60
2005,07,07,03,51,11.60
2005,07,07,03,52,11.60
2005,07,07,03,53,11.60
2005,07,07,03,54,11.60
2005,07,07,03,55,11.60
2005,07,07,03,56,11.60
2005,07,07,03,57,11.70
2005,07,07,03,58,11.70
2005,07,07,03,59,11.70
2005,07,07,04,00,11.70
2005,07,07,04,01,11.70
2005,07,07,04,02,11.70
2005,07,07,04,03,11.70
2005,07,07,04,04,11.70
2005,07,07,04,05,11.70
2005,07,07,04,06,11.70
2005,07,07,04,07,11.80
2005,07,07,04,08,11.80
2005,07,07,04,09,11.80
2005,07,07,04,10,11.80
2005,07,07,04,11,11.80
2005,07,07,04,12,11.80
2005,07,07,04,13,11.80
2005,07,07,04,14,11.80
2005,07,07,04,15,11.80
2005,07,07,04,16,11.80
2005,07,07,04,17,11.80
2005,07,07,04,18,11.80
2005,07,07,04,19,11.80
2005,07,07,04,20,11.80
2005,07,07,04,21,11.80
2005,07,07,04,22,11.70
2005,07,07,04,23,11.70
2005,07,07,04,24,11.70
2005,07,07,04,25,11.70
2005,07,07,04,26,11.70
2005,07,07,04,27,11.70
2005,07,07,04,28,11.80
2005,07,07,04,29,11.80
2005,07,07,04,30,11.80
2005,07,07,04,31,11.70
2005,07,07,04,32,11.70
2005,07,07,04,33,11.70
2005,07,07,04,34,11.70
2005,07,07,04,35,11.70
2005,07,07,04,36,11.70
2005,07,07,04,37,11.60
2005,07,07,04,38,11.60
2005,07,07,04,39,11.60
2005,07,07,04,40,11.60
2005,07,07,04,41,11.60
2005,07,07,04,42,11.60
2005,07,07,04,43,11.60
2005,07,07,04,44,11.60
2005,07,07,04,45,11.60
2005,07,07,04,46,11.60
2005,07,07,04,47,11.60
2005,07,07,04,48,11.40
2005,07,07,04,49,11.40
2005,07,07,04,50,11.40
2005,07,07,04,51,11.40
2005,07,07,04,52,11.40
2005,07,07,04,53,11.30
2005,07,07,04,54,11.30
2005,07,07,04,55,11.30
2005,07,07,04,56,11.20
2005,07,07,04,57,11.20
2005,07,07,04,58,11.20
2005,07,07,04,59,11.20
2005,07,07,05,00,11.20
2005,07,07,05,01,11.20
2005,07,07,05,02,11.20
2005,07,07,05,03,11.20
2005,07,07,05,04,11.10
2005,07,07,05,05,11.10
2005,07,07,05,06,11.10
2005,07,07,05,07,11.10
2005,07,07,05,08,11.10
2005,07,07,05,09,11.10
2005,07,07,05,10,11.10
2005,07,07,05,11,11.10
2005,07,07,05,12,11.10
2005,07,07,05,13,11.10
2005,07,07,05,14,11.10
2005,07,07,05,15,11.10
2005,07,07,05,16,11.10
2005,07,07,05,17,11.10
2005,07,07,05,18,11.10
2005,07,07,05,19,11.10
2005,07,07,05,20,11.10
2005,07,07,05,21,11.10
2005,07,07,05,22,11.10
2005,07,07,05,23,11.10
2005,07,07,05,24,11.10
2005,07,07,05,25,11.10
2005,07,07,05,26,11.10
2005,07,07,05,27,11.10
2005,07,07,05,28,11.10
2005,07,07,05,29,11.10
2005,07,07,05,30,11.10
2005,07,07,05,31,11.10
2005,07,07,05,32,11.10
2005,07,07,05,33,11.10
2005,07,07,05,34,11.10
2005,07,07,05,35,11.00
2005,07,07,05,36,10.90
2005,07,07,05,37,10.90
2005,07,07,05,38,10.90
2005,07,07,05,39,10.90
2005,07,07,05,40,10.90
2005,07,07,05,41,10.90
2005,07,07,05,42,10.90
2005,07,07,05,43,10.90
2005,07,07,05,44,10.90
2005,07,07,05,45,10.90
2005,07,07,05,46,10.90
2005,07,07,05,47,10.90
2005,07,07,05,48,10.90
2005,07,07,05,49,10.90
2005,07,07,05,50,10.90
2005,07,07,05,51,10.90
2005,07,07,05,52,10.90
2005,07,07,05,53,10.90
2005,07,07,05,54,10.90
2005,07,07,05,55,10.90
2005,07,07,05,56,11.00
2005,07,07,05,57,11.10
2005,07,07,05,58,11.10
2005,07,07,05,59,11.10
2005,07,07,06,00,11.20
2005,07,07,06,01,11.20
2005,07,07,06,02,11.20
2005,07,07,06,03,11.30
2005,07,07,06,04,11.30
2005,07,07,06,05,11.30
2005,07,07,06,06,11.40
2005,07,07,06,07,11.40
2005,07,07,06,08,11.40
2005,07,07,06,09,11.40
2005,07,07,06,10,11.50
2005,07,07,06,11,11.60
2005,07,07,06,12,11.60
2005,07,07,06,13,11.60
2005,07,07,06,14,11.60
2005,07,07,06,15,11.60
2005,07,07,06,16,11.60
2005,07,07,06,17,11.60
2005,07,07,06,18,11.60
2005,07,07,06,19,11.50
2005,07,07,06,20,11.40
2005,07,07,06,21,11.40
2005,07,07,06,22,11.40
2005,07,07,06,23,11.40
2005,07,07,06,24,11.40
2005,07,07,06,25,11.40
2005,07,07,06,26,11.40
2005,07,07,06,27,11.40
2005,07,07,06,28,11.40
2005,07,07,06,29,11.40
2005,07,07,06,30,11.40
2005,07,07,06,31,11.40
2005,07,07,06,32,11.40
2005,07,07,06,33,11.40
2005,07,07,06,34,11.50
2005,07,07,06,35,11.60
2005,07,07,06,36,11.60
2005,07,07,06,37,11.60
2005,07,07,06,38,11.60
2005,07,07,06,39,11.70
2005,07,07,06,40,11.70
2005,07,07,06,41,11.80
2005,07,07,06,42,11.80
2005,07,07,06,43,11.80
2005,07,07,06,44,11.80
2005,07,07,06,45,11.80
2005,07,07,06,46,11.90
2005,07,07,06,47,11.90
2005,07,07,06,48,11.90
2005,07,07,06,49,11.90
2005,07,07,06,50,11.90
2005,07,07,06,51,11.90
2005,07,07,06,52,11.90
2005,07,07,06,53,12.00
2005,07,07,06,54,12.00
2005,07,07,06,55,12.00
2005,07,07,06,56,12.10
2005,07,07,06,57,12.10
2005,07,07,06,58,12.10
2005,07,07,06,59,12.20
2005,07,07,07,00,12.20
2005,07,07,07,01,12.30
2005,07,07,07,02,12.30
2005,07,07,07,03,12.30
2005,07,07,07,04,12.40
2005,07,07,07,05,12.40
2005,07,07,07,06,12.50
2005,07,07,07,07,12.60
2005,07,07,07,08,12.60
2005,07,07,07,09,12.70
2005,07,07,07,10,12.80
2005,07,07,07,11,12.80
2005,07,07,07,12,12.90
2005,07,07,07,13,13.00
2005,07,07,07,14,13.00
2005,07,07,07,15,13.10
2005,07,07,07,16,13.10
2005,07,07,07,17,13.10
2005,07,07,07,18,13.20
2005,07,07,07,19,13.20
2005,07,07,07,20,13.20
2005,07,07,07,21,13.30
2005,07,07,07,22,13.30
2005,07,07,07,23,13.30
2005,07,07,07,24,13.30
2005,07,07,07,25,13.30
2005,07,07,07,26,13.30
2005,07,07,07,27,13.30
2005,07,07,07,28,13.30
2005,07,07,07,29,13.30
2005,07,07,07,30,13.30
2005,07,07,07,31,13.30
2005,07,07,07,32,13.30
2005,07,07,07,33,13.40
2005,07,07,07,34,13.50
2005,07,07,07,35,13.50
2005,07,07,07,36,13.60
2005,07,07,07,37,13.60
2005,07,07,07,38,13.60
2005,07,07,07,39,13.70
2005,07,07,07,40,13.70
2005,07,07,07,41,13.80
2005,07,07,07,42,13.80
2005,07,07,07,43,13.90
2005,07,07,07,44,13.90
2005,07,07,07,45,13.90
2005,07,07,07,46,14.00
2005,07,07,07,47,14.00
2005,07,07,07,48,14.00
2005,07,07,07,49,14.10
2005,07,07,07,50,14.10
2005,07,07,07,51,14.20
2005,07,07,07,52,14.20
2005,07,07,07,53,14.20
2005,07,07,07,54,14.20
2005,07,07,07,55,14.30
2005,07,07,07,56,14.30
2005,07,07,07,57,14.40
2005,07,07,07,58,14.40
2005,07,07,07,59,14.40
2005,07,07,08,00,14.50
2005,07,07,08,01,14.50
2005,07,07,08,02,14.50
2005,07,07,08,03,14.60
2005,07,07,08,04,14.60
2005,07,07,08,05,14.60
2005,07,07,08,06,14.60
2005,07,07,08,07,14.60
2005,07,07,08,08,14.60
2005,07,07,08,09,14.60
2005,07,07,08,10,14.60
2005,07,07,08,11,14.60
2005,07,07,08,12,14.60
2005,07,07,08,13,14.60
2005,07,07,08,14,14.60
2005,07,07,08,15,14.60
2005,07,07,08,16,14.60
2005,07,07,08,17,14.60
2005,07,07,08,18,14.60
2005,07,07,08,19,14.60
2005,07,07,08,20,14.70
2005,07,07,08,21,14.80
2005,07,07,08,22,14.80
2005,07,07,08,23,14.90
2005,07,07,08,24,14.90
2005,07,07,08,25,15.00
2005,07,07,08,26,15.00
2005,07,07,08,27,15.10
2005,07,07,08,28,15.10
2005,07,07,08,29,15.10
2005,07,07,08,30,15.10
2005,07,07,08,31,15.10
2005,07,07,08,32,15.10
2005,07,07,08,33,15.10
2005,07,07,08,34,15.10
2005,07,07,08,35,15.10
2005,07,07,08,36,15.10
2005,07,07,08,37,15.00
2005,07,07,08,38,15.00
2005,07,07,08,39,14.90
2005,07,07,08,40,15.00
2005,07,07,08,41,15.00
2005,07,07,08,42,15.00
2005,07,07,08,43,15.00
2005,07,07,08,44,15.00
2005,07,07,08,45,15.00
2005,07,07,08,46,15.10
2005,07,07,08,47,15.10
2005,07,07,08,48,15.20
2005,07,07,08,49,15.20
2005,07,07,08,50,15.20
2005,07,07,08,51,15.30
2005,07,07,08,52,15.30
2005,07,07,08,53,15.30
2005,07,07,08,54,15.30
2005,07,07,08,55,15.30
2005,07,07,08,56,15.20
2005,07,07,08,57,15.20
2005,07,07,08,58,15.20
2005,07,07,08,59,15.20
2005,07,07,09,00,15.30
2005,07,07,09,01,15.30
2005,07,07,09,02,15.30
2005,07,07,09,03,15.30
2005,07,07,09,04,15.30
2005,07,07,09,05,15.30
2005,07,07,09,06,15.30
2005,07,07,09,07,15.30
2005,07,07,09,08,15.30
2005,07,07,09,09,15.30
2005,07,07,09,10,15.30
2005,07,07,09,11,15.40
2005,07,07,09,12,15.50
2005,07,07,09,13,15.50
2005,07,07,09,14,15.60
2005,07,07,09,15,15.60
2005,07,07,09,16,15.70
2005,07,07,09,17,15.80
2005,07,07,09,18,15.80
2005,07,07,09,19,15.80
2005,07,07,09,20,15.80
2005,07,07,09,21,15.90
2005,07,07,09,22,16.00
2005,07,07,09,23,16.10
2005,07,07,09,24,16.20
2005,07,07,09,25,16.20
2005,07,07,09,26,16.30
2005,07,07,09,27,16.30
2005,07,07,09,28,16.30
2005,07,07,09,29,16.20
2005,07,07,09,30,16.20
2005,07,07,09,31,16.20
2005,07,07,09,32,16.10
2005,07,07,09,33,16.10
2005,07,07,09,34,16.00
2005,07,07,09,35,15.90
2005,07,07,09,36,16.00
2005,07,07,09,37,16.10
2005,07,07,09,38,16.10
2005,07,07,09,39,16.10
2005,07,07,09,40,16.00
2005,07,07,09,41,15.90
2005,07,07,09,42,15.90
2005,07,07,09,43,16.10
2005,07,07,09,44,16.10
2005,07,07,09,45,16.10
2005,07,07,09,46,16.10
2005,07,07,09,47,16.10
2005,07,07,09,48,16.10
2005,07,07,09,49,16.10
2005,07,07,09,50,16.10
2005,07,07,09,51,16.10
2005,07,07,09,52,16.10
2005,07,07,09,53,16.10
2005,07,07,09,54,16.10
2005,07,07,09,55,16.10
2005,07,07,09,56,16.10
2005,07,07,09,57,16.10
2005,07,07,09,58,16.20
2005,07,07,09,59,16.20
2005,07,07,10,00,16.30
2005,07,07,10,01,16.40
2005,07,07,10,02,16.40
2005,07,07,10,03,16.40
2005,07,07,10,04,16.60
2005,07,07,10,05,16.60
2005,07,07,10,06,16.70
2005,07,07,10,07,16.70
2005,07,07,10,08,16.60
2005,07,07,10,09,16.50
2005,07,07,10,10,16.40
2005,07,07,10,11,16.30
2005,07,07,10,12,16.30
2005,07,07,10,13,16.40
2005,07,07,10,14,16.40
2005,07,07,10,15,16.50
2005,07,07,10,16,16.60
2005,07,07,10,17,16.70
2005,07,07,10,18,16.70
2005,07,07,10,19,16.80
2005,07,07,10,20,16.90
2005,07,07,10,21,16.90
2005,07,07,10,22,17.00
2005,07,07,10,23,17.10
2005,07,07,10,24,17.10
2005,07,07,10,25,17.20
2005,07,07,10,26,17.40
2005,07,07,10,27,17.50
2005,07,07,10,28,17.60
2005,07,07,10,29,17.70
2005,07,07,10,30,17.70
2005,07,07,10,31,17.80
2005,07,07,10,32,17.90
2005,07,07,10,33,17.90
2005,07,07,10,34,17.90
2005,07,07,10,35,17.90
2005,07,07,10,36,17.90
2005,07,07,10,37,18.00
2005,07,07,10,38,18.00
2005,07,07,10,39,17.90
2005,07,07,10,40,18.00
2005,07,07,10,41,18.10
2005,07,07,10,42,18.10
2005,07,07,10,43,18.00
2005,07,07,10,44,17.90
2005,07,07,10,45,17.80
2005,07,07,10,46,17.70
2005,07,07,10,47,17.70
2005,07,07,10,48,17.70
2005,07,07,10,49,17.70
2005,07,07,10,50,17.70
2005,07,07,10,51,17.80
2005,07,07,10,52,17.70
2005,07,07,10,53,17.60
2005,07,07,10,54,17.40
2005,07,07,10,55,17.40
2005,07,07,10,56,17.30
2005,07,07,10,57,17.30
2005,07,07,10,58,17.30
2005,07,07,10,59,17.20
2005,07,07,11,00,17.20
2005,07,07,11,01,17.10
2005,07,07,11,02,17.00
2005,07,07,11,03,16.90
2005,07,07,11,04,16.80
2005,07,07,11,05,16.70
2005,07,07,11,06,16.80
2005,07,07,11,07,16.80
2005,07,07,11,08,16.90
2005,07,07,11,09,17.00
2005,07,07,11,10,17.10
2005,07,07,11,11,17.30
2005,07,07,11,12,17.40
2005,07,07,11,13,17.50
2005,07,07,11,14,17.70
2005,07,07,11,15,17.90
2005,07,07,11,16,18.00
2005,07,07,11,17,18.10
2005,07,07,11,18,18.10
2005,07,07,11,19,18.10
2005,07,07,11,20,18.10
2005,07,07,11,21,18.20
2005,07,07,11,22,18.30
2005,07,07,11,23,18.30
2005,07,07,11,24,18.30
2005,07,07,11,25,18.20
2005,07,07,11,26,18.20
2005,07,07,11,27,18.20
2005,07,07,11,28,18.20
2005,07,07,11,29,18.10
2005,07,07,11,30,18.10
2005,07,07,11,31,18.20
2005,07,07,11,32,18.10
2005,07,07,11,33,18.00
2005,07,07,11,34,17.90
2005,07,07,11,35,18.00
2005,07,07,11,36,18.10
2005,07,07,11,37,18.10
2005,07,07,11,38,18.10
2005,07,07,11,39,18.10
2005,07,07,11,40,18.20
2005,07,07,11,41,18.10
2005,07,07,11,42,17.90
2005,07,07,11,43,17.70
2005,07,07,11,44,17.50
2005,07,07,11,45,17.30
2005,07,07,11,46,17.10
2005,07,07,11,47,17.10
2005,07,07,11,48,17.10
2005,07,07,11,49,17.10
2005,07,07,11,50,17.00
2005,07,07,11,51,17.00
2005,07,07,11,52,17.00
2005,07,07,11,53,17.00
2005,07,07,11,54,17.00
2005,07,07,11,55,16.90
2005,07,07,11,56,16.90
2005,07,07,11,57,16.90
2005,07,07,11,58,16.90
2005,07,07,11,59,16.80
2005,07,07,12,00,16.80
2005,07,07,12,01,16.90
2005,07,07,12,02,17.00
2005,07,07,12,03,17.10
2005,07,07,12,04,17.20
2005,07,07,12,05,17.20
2005,07,07,12,06,17.20
2005,07,07,12,07,17.20
2005,07,07,12,08,17.30
2005,07,07,12,09,17.30
2005,07,07,12,10,17.30
2005,07,07,12,11,17.20
2005,07,07,12,12,17.20
2005,07,07,12,13,17.20
2005,07,07,12,14,17.20
2005,07,07,12,15,17.20
2005,07,07,12,16,17.30
2005,07,07,12,17,17.30
2005,07,07,12,18,17.30
2005,07,07,12,19,17.30
2005,07,07,12,20,17.30
2005,07,07,12,21,17.30
2005,07,07,12,22,17.30
2005,07,07,12,23,17.20
2005,07,07,12,24,17.00
2005,07,07,12,25,16.90
2005,07,07,12,26,16.70
2005,07,07,12,27,16.70
2005,07,07,12,28,16.70
2005,07,07,12,29,16.70
2005,07,07,12,30,16.70
2005,07,07,12,31,16.70
2005,07,07,12,32,16.70
2005,07,07,12,33,16.90
2005,07,07,12,34,17.00
2005,07,07,12,35,17.00
2005,07,07,12,36,17.20
2005,07,07,12,37,17.30
2005,07,07,12,38,17.40
2005,07,07,12,39,17.40
2005,07,07,12,40,17.30
2005,07,07,12,41,17.40
2005,07,07,12,42,17.60
2005,07,07,12,43,17.70
2005,07,07,12,44,17.70
2005,07,07,12,45,17.60
2005,07,07,12,46,17.50
2005,07,07,12,47,17.40
2005,07,07,12,48,17.40
2005,07,07,12,49,17.30
2005,07,07,12,50,17.30
2005,07,07,12,51,17.20
2005,07,07,12,52,17.30
2005,07,07,12,53,17.30
2005,07,07,12,54,17.40
2005,07,07,12,55,17.50
2005,07,07,12,56,17.50
2005,07,07,12,57,17.50
2005,07,07,12,58,17.40
2005,07,07,12,59,17.40
2005,07,07,13,00,17.50
2005,07,07,13,01,17.50
2005,07,07,13,02,17.70
2005,07,07,13,03,17.60
2005,07,07,13,04,17.60
2005,07,07,13,05,17.50
2005,07,07,13,06,17.50
2005,07,07,13,07,17.40
2005,07,07,13,08,17.30
2005,07,07,13,09,17.30
2005,07,07,13,10,17.30
2005,07,07,13,11,17.30
2005,07,07,13,12,17.40
2005,07,07,13,13,17.40
2005,07,07,13,14,17.40
2005,07,07,13,15,17.40
2005,07,07,13,16,17.50
2005,07,07,13,17,17.60
2005,07,07,13,18,17.70
2005,07,07,13,19,17.80
2005,07,07,13,20,17.90
2005,07,07,13,21,17.90
2005,07,07,13,22,17.80
2005,07,07,13,23,17.70
2005,07,07,13,24,17.60
2005,07,07,13,25,17.50
2005,07,07,13,26,17.50
2005,07,07,13,27,17.50
2005,07,07,13,28,17.40
2005,07,07,13,29,17.40
2005,07,07,13,30,17.50
2005,07,07,13,31,17.50
2005,07,07,13,32,17.60
2005,07,07,13,33,17.70
2005,07,07,13,34,17.80
2005,07,07,13,35,17.90
2005,07,07,13,36,17.90
2005,07,07,13,37,17.90
2005,07,07,13,38,17.80
2005,07,07,13,39,17.70
2005,07,07,13,40,17.60
2005,07,07,13,41,17.60
2005,07,07,13,42,17.80
2005,07,07,13,43,17.90
2005,07,07,13,44,18.00
2005,07,07,13,45,18.00
2005,07,07,13,46,17.90
2005,07,07,13,47,17.90
2005,07,07,13,48,17.90
2005,07,07,13,49,17.80
2005,07,07,13,50,17.80
2005,07,07,13,51,17.80
2005,07,07,13,52,17.80
2005,07,07,13,53,17.80
2005,07,07,13,54,17.80
2005,07,07,13,55,17.80
2005,07,07,13,56,17.90
2005,07,07,13,57,17.90
2005,07,07,13,58,18.00
2005,07,07,13,59,18.10
2005,07,07,14,00,18.20
2005,07,07,14,01,18.20
2005,07,07,14,02,18.20
2005,07,07,14,03,18.10
2005,07,07,14,04,18.00
2005,07,07,14,05,17.90
2005,07,07,14,06,18.00
2005,07,07,14,07,18.20
2005,07,07,14,08,18.20
2005,07,07,14,09,18.20
2005,07,07,14,10,18.10
2005,07,07,14,11,18.00
2005,07,07,14,12,17.90
2005,07,07,14,13,17.90
2005,07,07,14,14,17.90
2005,07,07,14,15,17.90
2005,07,07,14,16,17.90
2005,07,07,14,17,17.80
2005,07,07,14,18,17.80
2005,07,07,14,19,17.80
2005,07,07,14,20,17.70
2005,07,07,14,21,17.60
2005,07,07,14,22,17.60
2005,07,07,14,23,17.50
2005,07,07,14,24,17.50
2005,07,07,14,25,17.60
2005,07,07,14,26,17.70
2005,07,07,14,27,17.60
2005,07,07,14,28,17.70
2005,07,07,14,29,17.80
2005,07,07,14,30,18.00
2005,07,07,14,31,18.10
2005,07,07,14,32,18.10
2005,07,07,14,33,18.20
2005,07,07,14,34,18.20
2005,07,07,14,35,18.30
2005,07,07,14,36,18.40
2005,07,07,14,37,18.50
2005,07,07,14,38,18.50
2005,07,07,14,39,18.30
2005,07,07,14,40,18.20
2005,07,07,14,41,18.10
2005,07,07,14,42,18.10
2005,07,07,14,43,17.90
2005,07,07,14,44,17.80
2005,07,07,14,45,17.70
2005,07,07,14,46,17.60
2005,07,07,14,47,17.60
2005,07,07,14,48,17.50
2005,07,07,14,49,17.50
2005,07,07,14,50,17.50
2005,07,07,14,51,17.60
2005,07,07,14,52,17.80
2005,07,07,14,53,17.80
2005,07,07,14,54,17.90
2005,07,07,14,55,17.80
2005,07,07,14,56,17.80
2005,07,07,14,57,17.90
2005,07,07,14,58,18.00
2005,07,07,14,59,18.10
2005,07,07,15,00,18.30
2005,07,07,15,01,18.40
2005,07,07,15,02,18.60
2005,07,07,15,03,18.70
2005,07,07,15,04,18.70
2005,07,07,15,05,18.70
2005,07,07,15,06,18.70
2005,07,07,15,07,18.50
2005,07,07,15,08,18.30
2005,07,07,15,09,18.20
2005,07,07,15,10,18.20
2005,07,07,15,11,18.20
2005,07,07,15,12,18.10
2005,07,07,15,13,17.90
2005,07,07,15,14,18.00
2005,07,07,15,15,18.10
2005,07,07,15,16,18.20
2005,07,07,15,17,18.20
2005,07,07,15,18,18.30
2005,07,07,15,19,18.40
2005,07,07,15,20,18.50
2005,07,07,15,21,18.60
2005,07,07,15,22,18.60
2005,07,07,15,23,18.70
2005,07,07,15,24,18.60
2005,07,07,15,25,18.50
2005,07,07,15,26,18.50
2005,07,07,15,27,18.40
2005,07,07,15,28,18.40
2005,07,07,15,29,18.30
2005,07,07,15,30,18.20
2005,07,07,15,31,18.20
2005,07,07,15,32,18.20
2005,07,07,15,33,18.20
2005,07,07,15,34,18.40
2005,07,07,15,35,18.50
2005,07,07,15,36,18.70
2005,07,07,15,37,18.60
2005,07,07,15,38,18.50
2005,07,07,15,39,18.60
2005,07,07,15,40,18.70
2005,07,07,15,41,18.70
2005,07,07,15,42,18.70
2005,07,07,15,43,18.80
2005,07,07,15,44,18.90
2005,07,07,15,45,18.90
2005,07,07,15,46,19.10
2005,07,07,15,47,19.10
2005,07,07,15,48,19.00
2005,07,07,15,49,18.90
2005,07,07,15,50,18.90
2005,07,07,15,51,18.90
2005,07,07,15,52,19.00
2005,07,07,15,53,19.10
2005,07,07,15,54,19.20
2005,07,07,15,55,19.40
2005,07,07,15,56,19.50
2005,07,07,15,57,19.60
2005,07,07,15,58,19.70
2005,07,07,15,59,19.80
2005,07,07,16,00,19.80
2005,07,07,16,01,19.70
2005,07,07,16,02,19.70
2005,07,07,16,03,19.60
2005,07,07,16,04,19.60
2005,07,07,16,05,19.50
2005,07,07,16,06,19.40
2005,07,07,16,07,19.30
2005,07,07,16,08,19.30
2005,07,07,16,09,19.40
2005,07,07,16,10,19.50
2005,07,07,16,11,19.60
2005,07,07,16,12,19.60
2005,07,07,16,13,19.60
2005,07,07,16,14,19.60
2005,07,07,16,15,19.60
2005,07,07,16,16,19.60
2005,07,07,16,17,19.60
2005,07,07,16,18,19.60
2005,07,07,16,19,19.60
2005,07,07,16,20,19.60
2005,07,07,16,21,19.40
2005,07,07,16,22,19.30
2005,07,07,16,23,19.20
2005,07,07,16,24,19.20
2005,07,07,16,25,19.30
2005,07,07,16,26,19.40
2005,07,07,16,27,19.40
2005,07,07,16,28,19.50
2005,07,07,16,29,19.60
2005,07,07,16,30,19.70
2005,07,07,16,31,19.70
2005,07,07,16,32,19.80
2005,07,07,16,33,19.90
2005,07,07,16,34,19.90
2005,07,07,16,35,19.90
2005,07,07,16,36,19.90
2005,07,07,16,37,20.00
2005,07,07,16,38,20.10
2005,07,07,16,39,20.10
2005,07,07,16,40,20.10
2005,07,07,16,41,20.10
2005,07,07,16,42,20.10
2005,07,07,16,43,20.20
2005,07,07,16,44,20.30
2005,07,07,16,45,20.30
2005,07,07,16,46,20.30
2005,07,07,16,47,20.30
2005,07,07,16,48,20.30
2005,07,07,16,49,20.30
2005,07,07,16,50,20.30
2005,07,07,16,51,20.20
2005,07,07,16,52,20.20
2005,07,07,16,53,20.10
2005,07,07,16,54,20.00
2005,07,07,16,55,19.90
2005,07,07,16,56,19.90
2005,07,07,16,57,19.90
2005,07,07,16,58,20.00
2005,07,07,16,59,19.90
2005,07,07,17,00,19.90
2005,07,07,17,01,20.00
2005,07,07,17,02,20.10
2005,07,07,17,03,20.10
2005,07,07,17,04,20.20
2005,07,07,17,05,20.20
2005,07,07,17,06,20.00
2005,07,07,17,07,19.90
2005,07,07,17,08,19.90
2005,07,07,17,09,19.80
2005,07,07,17,10,19.80
2005,07,07,17,11,19.90
2005,07,07,17,12,19.90
2005,07,07,17,13,20.00
2005,07,07,17,14,20.00
2005,07,07,17,15,19.90
2005,07,07,17,16,19.80
2005,07,07,17,17,19.80
2005,07,07,17,18,19.80
2005,07,07,17,19,19.80